Starlink 4106

operational
NORAD ID: 53145 Int'l Des: 2022-083 Owner: SPXS Country: US Constellation: starlink
LEOCIRCULAR

About Starlink 4106

Description loading...

Live Position

Loading 3D Globe...

Upcoming Passes

Altitude History

Altitude vs Time

uPlot chart will show altitude changes over time

Two-Line Element Set

1 53145U 22083P 25296.64972046 .00000380 00000-0 41950-4 0 9999
2 53145 53.2171 69.3146 0001290 92.0110 268.1030 15.08839342180533
Epoch: Oct 23, 2025 • Age: 26 hours

Current Status

Altitude 541.0 km
Velocity 7.60 km/s
Sub-Earth Point 30.25°N, 158.86°E
Launch Date Jul 17, 2022
Age 3.2 years
Type internet

Technical Details

Classification Payload
Mass 297.00 kg
Dry Mass 275.00 kg
Total Mass 297.00 kg
Length 0.20 m
Diameter 2.80 m
Span 9.00 m
Shape Box + pan
Manufacturer SPXS
Bus Type Starlink
Phase Status In Orbit
Owner/State SPXS/US

Large Constellations

Loading constellations...